World > North America > United States > Wyoming > Dixon  

Dixon, WY Hourly Weather Updates

Feedback E-mail the Weather

Quick Clicks

Dixon, WY Weather Maps

°F °C°F °C
Dixon Weather Map
UTC Time: 6/18/2024, 16:20
Your Time:

Dixon, WY Regional Weather

Expires:202406181700;;240692
ASUS45 KCYS 181610
RWRWY 

WYOMING REGIONAL WEATHER ROUNDUP
NATIONAL WEATHER SERVICE CHEYENNE WY
1000 AM MDT TUE JUN 18 2024

NOTE:  "FAIR" INDICATES FEW OR NO CLOUDS BELOW 12,000 FEET
WITH NO SIGNIFICANT WEATHER AND/OR OBSTRUCTIONS TO VISIBILITY.


WYZ021-027>030-104>119-181700-
...SOUTHERN WYOMING...
  
CITY           SKY/WX    TMP DP  RH WIND       PRES   REMARKS
EVANSTON       SUNNY     45  12  26 SW7       30.09R                  
KEMMERER       SUNNY     43  18  36 NW8       30.10R                  
FORT BRIDGER   SUNNY     46  15  27 W5        30.12R                  
ROCK SPRINGS   SUNNY     45  21  38 W16G22    30.08S                  
DIXON          PTSUNNY   41  22  47 CALM      30.12F                  
RAWLINS        PTSUNNY   44  19  36 SW21G26   30.05R                  
SARATOGA       PTSUNNY   45  21  39 SW16G22   30.08R                  
LARAMIE        PTSUNNY   53   8  16 W24G30    29.97F                  
CHEYENNE       CLOUDY    52  17  25 N17G30    29.91R                  
TORRINGTON     CLOUDY    58  22  24 W24G32    29.89R                  
PINE BLUFFS      N/A     54  21  28 N25G31    29.92R                  

$$
  

SKY/WX - Weather  TMP - Temperature  DP - Dew Point  RH - Humidity
WIND - Wind Direction/Speed PRES - Barometric Pressure VSB - Visibility
WCI - Wind Chill Index E13G22 Wind - East Wind 13 mph/Gusts of 22 mph

Trending Headlines

Trending Entertainment Headlines

Dixon Radar Loop

Use the map search tool if you want to place a location marker on the radar map...

Dixon Quick Facts

National Two Day Weather Forecast


E-mail the Dixon Weather Forecast

Voice your opinion or tell us about page issues...